SCP
0 0 0 0 0 0 0 0 0 0 0 0 0 0 0 0 0 0 0 0 0 0 0 0 0 0 0 0 0 0 0 0 0 0 0 0 0 0 0 0 0 0 0
0 0 0 0 0 0 0 0 0 0 0 0 0 0 0 0 0 0 0 0 0 0 0 0 0 0 0 0 0 0 0 0 0 0 0 0 0 0 0 0 0 0 0
0 0 0 0 0 0 0 0 0 0 0 0 0 0 0 0 0 0 0 0 0 0 0 0 0 0 0 0 0 0 0 0 0 0 0 0 0 0 0 0 0 0 0
0 0 0 0 0 0 0 0 0 0 0 0 0 0 0 0 0 0 0 0 0 0 0 0 0 0 0 0 0 0 0 0 0 0 0 0 0 0 0 0 0 0 0
0 0 0 0 0 0 0 0 0 0 0 0 0 0 0 0 0 0 0 0 0 0 0 0 0 0 0 0 0 0 0 0 0 0 0 0 0 0 0 0 0 0 0
0 0 0 0 0 0 0 0 0 0 0 0 0 0 0 0 0 0 0 0 0 0 0 0 0 0 0 0 0 0 0 0 0 0 0 0 0 0 0 0 0 0 0
0 0 0 0 0 0 0 0 0 0 0 0 0 0 0 0 0 0 0 0 0 0 0 0 0 0 0 0 0 0 0 0 0 0 0 0 0 0 0 0 0 0 0
0 0 0 0 0 0 0 0 0 0 0 0 0 0 0 0 0 0 0 0 0 0 0 0 0 0 0 0 0 0 0 0 0 0 0 0 0 0 0 0 0 0 0
0 0 0 0 0 0 0 0 0 0 0 0 0 0 0 0 0 0 0 0 0 0 0 0 0 0 0 0 0 0 0 0 0 0 0 0 0 0 0 0 0 0 0
0 0 0 0 0 0 0 0 0 0 0 0 0 0 0 0 0 0 0 0 0 0 0 0 0 0 0 0 0 0 0 0 0 0 0 0 0 0 0 0 0 0 0
0 0 0 0 0 0 0 0 0 0 0 0 0 0 0 0 0 0 0 0 0 0 0 0 0 0 0 0 0 0 0 0 0 0 0 0 0 0 0 0 0 0 0
0 0 0 0 0 0 0 0 0 0 0 0 0 0 0 0 0 0 0 0 0 0 0 0 0 0 0 0 0 0 0 0 0 0 0 0 0 0 0 0 0 0 0
0 0 0 0 0 0 0 0 0 0 0 0 0 0 0 0 0 0 0 0 0 0 0 0 0 0 0 0 0 0 0 0 0 0 0 0 0 0 0 0 0 0 0
0 0 0 0 0 0 0 0 0 0 0 0 0 0 0 0 0 0 0 0 0 0 0 0 0 0 0 0 0 0 0 0 0 0 0 0 0 0 0 0 0 0 0
0 0 0 0 0 0 0 0 0 0 0 0 0 0 0 0 0 0 0 0 0 0 0 0 0 0 0 0 0 0 0 0 0 0 0 0 0 0 0 0 0 0 0
0 0 0 0 0 0 0 0 0 0 0 0 0 0 0 0 0 0 0 0 0 0 0 0 0 0 0 0 0 0 0 0 0 0 0 0 0 0 0 0 0 0 0
0 0 0 0 0 0 0 0 0 0 0 0 0 0 0 0 0 0 0 0 0 0 0 0 0 0 0 0 0 0 0 0 0 0 0 0 0 0 0 0 0 0 0
0 0 0 0 0 0 0 0 0 0 0 0 0 0 0 0 0 0 0 0 0 0 0 0 0 0 0 0 0 0 0 0 0 0 0 0 0 0 0 0 0 0 0
0 0 0 0 0 0 0 0 0 0 0 0 0 0 0 0 0 0 0 0 0 0 0 0 0 0 0 0 0 0 0 0 0 0 0 0 0 0 0 0 0 0 0
0 0 0 0 0 0 0 0 0 0 0 0 0 0 0 0 0 0 0 0 0 0 0 0 0 0 0 0 0 0 0 0 0 0 0 0 0 0 0 0 0 0 0
0 0 0 0 0 0 0 0 0 0 0 0 0 0 0 0 0 0 0 0 0 0 0 0 0 0 0 0 0 0 0 0 0 0 0 0 0 0 0 0 0 0 0
0 0 0 0 0 0 0 0 0 0 0 0 0 0 0 0 0 0 0 0 0 0 0 0 0 0 0 0 0 0 0 0 0 0 0 0 0 0 0 0 0 0 0
0 0 0 0 0 0 0 0 0 0 0 0 0 0 0 0 0 0 0 0 0 0 0 0 0 0 0 0 0 0 0 0 0 0 0 0 0 0 0 0 0 0 0
0 0 0 0 0 0 0 0 0 0 0 0 0 0 0 0 0 0 0 0 0 0 0 0 0 0 0 0 0 0 0 0 0 0 0 0 0 0 0 0 0 0 0
0 0 0 0 0 0 0 0 0 0 0 0 0 0 0 0 0 0 0 0 0 0 0 0 0 0 0 0 0 0 0 0 0 0 0 0 0 0 0 0 0 0 0
0 0 0 0 0 0 0 0 0 0 0 0 0 0 0 0 0 0 0 0 0 0 0 0 0 0 0 0 0 0 0 0 0 0 0 0 0 0 0 0 0 0 0
Wind_Speed
4 4 4 3 3 2 2 1 1 1 1 2 2 3 3 4 4 4 4 4 4 4 4 4 5 4 3 3 3 3 3 3 5 5 4 6 7 8 8 8 7 7 7
5 4 4 4 3 3 3 2 1 1 1 1 2 2 2 3 3 3 3 3 4 4 4 4 4 3 4 3 3 3 3 3 4 6 6 6 7 8 9 9 7 7 7
5 5 5 5 5 4 3 2 2 1 1 1 1 1 1 2 2 2 2 2 2 3 3 3 4 4 4 3 3 3 3 3 3 4 5 5 6 6 9 8 9 7 8
5 6 6 5 5 5 4 3 3 2 2 2 1 1 1 1 1 1 1 1 1 2 2 2 3 3 4 4 3 4 4 4 4 4 5 5 5 7 7 7 8 7 8
6 7 7 6 5 5 4 4 4 3 3 3 2 2 2 2 2 2 2 2 2 2 2 2 2 4 5 4 4 4 4 4 4 4 5 5 6 6 7 7 8 9 9
7 7 7 6 6 6 5 5 5 4 4 3 3 3 3 2 2 3 3 3 2 2 3 2 2 3 3 5 5 6 6 5 5 5 5 6 7 7 7 7 8 9 7
7 7 7 7 7 7 6 6 6 5 5 5 4 4 4 3 4 4 5 4 3 3 3 3 3 3 4 4 5 5 5 6 7 7 7 7 8 8 9 9 9 9 9
7 7 7 7 7 7 6 7 6 5 5 5 5 5 4 4 5 5 5 5 4 4 4 4 4 4 4 5 6 6 6 5 6 6 6 7 8 8 8 9 10 11 10
8 8 8 8 7 7 7 7 6 6 6 5 5 5 5 5 5 6 6 4 4 4 4 4 5 5 6 7 7 7 7 6 5 7 9 10 12 12 10 7 7 8 8
8 7 7 8 8 8 8 7 6 6 6 5 5 5 6 6 6 7 7 4 5 4 4 4 5 6 7 8 7 7 7 7 7 7 8 8 8 8 9 7 6 7 7
6 6 7 8 8 8 7 6 6 6 5 5 6 6 6 6 6 8 8 5 5 5 4 4 4 6 8 9 8 7 8 9 8 7 7 7 6 5 6 6 6 6 7
6 6 7 7 7 6 7 6 6 6 6 6 6 6 5 5 7 7 9 9 7 6 5 4 4 7 9 9 8 8 10 9 6 6 6 6 6 6 6 6 7 8 9
6 7 7 7 7 7 7 7 6 6 5 5 5 5 5 4 5 8 9 9 9 7 5 7 8 9 9 7 7 9 8 6 5 5 6 6 6 6 7 7 8 8 10
7 7 6 6 7 7 6 6 6 6 6 6 6 6 5 5 5 4 5 5 7 7 6 7 9 9 7 7 7 6 5 5 5 6 6 6 6 6 6 6 7 7 8
7 7 6 6 6 6 7 6 7 7 7 7 6 5 5 5 5 7 5 4 4 5 5 5 4 4 4 4 4 4 4 4 5 5 6 6 6 6 6 6 6 7 8
6 6 6 5 5 5 6 5 8 9 10 11 10 8 7 8 8 9 9 9 9 8 7 5 5 5 5 5 5 5 5 5 5 5 6 6 7 7 7 7 7 7 8
8 7 5 6 6 6 6 6 5 7 10 11 12 12 12 10 10 10 9 9 9 8 6 6 5 5 5 5 5 5 6 6 5 6 6 7 7 7 7 7 7 8 8
8 8 7 6 6 6 6 6 5 5 5 5 8 11 12 11 10 10 9 8 6 6 5 6 5 5 5 5 5 5 6 6 6 6 7 7 7 7 8 8 8 9 9
7 6 6 6 6 6 5 5 5 6 5 5 4 5 9 9 9 9 8 6 6 5 5 5 5 5 5 5 5 6 6 6 7 7 7 7 7 7 8 8 8 12 11
6 8 7 6 5 6 5 6 6 6 6 5 5 5 4 5 5 6 6 6 6 6 5 5 5 5 5 5 6 6 6 7 7 7 7 7 7 8 9 10 9 9 9
5 6 9 6 6 6 6 6 6 6 6 6 5 6 7 5 6 6 5 5 6 6 5 5 5 5 6 5 6 7 8 7 7 7 7 8 8 8 8 9 9 9 9
5 5 6 6 6 6 6 5 6 6 6 7 5 5 9 7 5 5 5 5 5 5 5 5 5 5 5 6 6 7 7 8 8 7 8 8 8 9 9 9 9 9 9
5 5 5 5 5 7 6 5 6 6 6 6 5 5 5 6 6 6 6 5 5 5 5 5 6 6 5 6 6 7 8 8 8 8 9 9 9 9 9 9 11 11 10
5 6 6 5 5 6 6 6 6 6 6 6 6 5 6 6 6 6 5 5 5 5 5 5 6 8 9 7 6 7 7 8 9 9 12 11 10 9 9 9 10 11 11
6 6 6 6 6 6 6 6 6 6 6 6 6 5 5 5 5 5 5 5 5 6 6 6 6 7 9 10 10 9 11 15 15 11 10 10 11 11 11 11 10 11 11
6 6 6 5 6 6 6 6 6 6 6 5 5 5 5 5 5 5 5 5 5 5 6 6 7 8 9 9 11 12 15 16 17 17 11 9 10 10 10 9 12 11 11
Wind_Direction
218 216 218 219 214 210 213 235 277 318 339 344 357 4 11 15 17 26 28 22 26 25 21 24 24 15 9 9 4 357 345 322 294 303 317 328 330 336 334 332 328 329 327
214 211 212 211 210 209 210 217 230 265 306 327 345 357 9 13 15 20 23 22 22 19 15 14 11 6 7 4 358 354 344 335 309 304 316 328 330 330 329 329 331 328 328
210 210 211 210 212 215 212 210 213 233 261 284 312 329 343 355 1 6 12 13 14 10 3 358 357 354 355 354 348 344 337 331 319 302 309 317 317 325 325 325 327 326 326
209 211 215 217 216 217 212 211 213 220 237 255 272 284 296 312 316 323 338 333 343 354 353 347 345 342 338 335 331 333 325 318 312 306 306 311 315 322 324 327 326 328 324
213 216 219 219 215 213 210 210 211 216 227 239 248 257 265 275 279 289 293 296 307 318 326 331 342 344 339 329 325 325 320 313 312 310 309 313 318 326 328 326 319 321 318
218 220 216 212 209 210 211 211 211 216 222 227 237 248 254 250 267 275 279 283 285 293 302 308 315 309 317 317 317 319 317 311 311 307 306 307 313 318 318 318 317 317 315
220 220 214 210 211 212 210 212 215 216 219 225 230 237 245 246 254 264 264 273 274 282 289 294 296 301 303 302 303 296 296 297 296 297 296 300 308 313 313 310 308 306 300
222 221 216 212 214 213 213 217 220 221 223 227 230 235 245 249 250 260 261 261 264 267 272 279 285 292 299 303 300 296 294 293 293 290 290 296 302 307 304 300 300 298 293
225 223 217 212 214 213 215 219 219 218 223 226 230 235 242 249 246 254 259 261 260 266 268 274 280 285 294 294 292 292 292 291 286 283 286 289 293 295 299 299 300 301 300
228 225 218 213 215 216 217 217 215 217 224 224 230 235 241 249 250 251 253 258 260 265 265 265 265 277 290 294 292 291 293 299 301 294 286 285 287 289 291 289 293 294 297
234 225 217 214 216 218 216 211 209 213 219 224 233 236 239 245 249 250 249 252 257 264 265 267 268 278 285 290 290 287 294 300 297 293 292 292 292 292 294 292 288 282 282
227 222 219 215 211 210 210 208 208 210 218 226 234 241 239 238 242 244 246 250 259 263 266 269 274 281 285 289 289 293 297 296 288 288 287 290 294 297 297 296 291 283 275
224 224 221 216 212 209 208 206 206 210 219 226 231 239 241 236 236 240 245 251 257 260 264 271 278 281 282 282 284 292 293 286 285 285 286 289 291 292 294 293 290 285 280
228 226 219 214 212 210 209 209 209 210 216 223 229 235 237 235 233 230 235 242 247 253 260 265 269 272 271 277 281 280 278 281 285 283 287 290 290 287 285 289 292 296 291
231 226 220 217 214 213 214 215 217 221 222 224 229 232 235 238 234 237 247 249 253 257 264 261 262 264 265 268 272 275 277 277 278 282 284 286 287 286 285 287 286 287 283
230 226 220 215 214 214 215 223 226 231 231 234 239 239 243 249 253 248 252 258 262 264 260 255 258 262 266 271 276 278 279 279 280 282 281 281 284 285 286 284 280 280 282
228 226 220 217 215 213 214 218 224 224 228 235 237 239 243 248 250 252 256 259 257 257 252 251 255 258 263 266 270 274 278 280 281 277 276 278 279 280 281 282 282 281 281
230 225 221 220 218 216 216 219 223 224 224 228 230 235 240 244 247 250 253 256 248 242 245 250 253 256 259 263 267 271 275 279 275 274 275 275 274 275 277 278 279 280 282
228 224 219 220 219 219 217 218 221 224 230 231 226 226 229 238 242 243 244 242 244 245 246 248 251 254 258 262 266 268 272 273 274 275 274 275 273 272 272 274 277 279 279
229 221 216 218 217 215 214 216 218 220 224 226 226 223 211 219 228 231 232 237 242 247 249 250 252 254 257 260 265 267 269 270 271 270 272 273 273 272 271 273 274 276 276
227 218 211 217 219 215 215 218 219 219 223 227 229 221 216 223 229 233 234 236 240 245 247 250 252 254 254 257 261 264 267 269 270 271 272 272 272 272 272 271 272 272 274
222 219 215 218 219 217 219 220 220 222 226 230 231 224 223 228 232 234 235 238 241 244 246 249 252 253 253 256 260 264 266 268 269 271 272 273 272 271 271 271 271 272 273
222 221 220 220 219 220 223 223 222 223 227 228 226 223 221 225 230 233 236 239 241 243 244 245 250 254 254 255 257 260 263 267 270 274 276 276 275 274 272 271 272 273 272
220 219 220 220 218 219 221 223 222 223 225 227 227 227 227 229 231 234 237 240 241 243 244 245 250 256 260 264 262 261 262 267 273 272 272 272 274 274 271 270 271 271 271
222 222 221 220 219 222 223 224 223 223 223 225 228 229 229 230 233 235 235 237 241 244 247 251 253 257 260 264 268 270 272 277 279 278 274 270 270 269 269 270 270 272 271
225 226 226 222 221 222 222 223 223 222 223 225 226 227 228 229 231 234 234 236 240 246 250 252 254 261 267 268 269 273 280 284 285 286 284 276 273 273 276 274 274 272 273